Location: ??? ????
(38.0580°N, 23.1536°E)
Time: 15:07:29
(UTC+00:00)

Cosmos 923 Rocket - Pass Details

Date: 13 December 2025
Orbit: 755 x 780 km, 74.0° (Epoch: 17 January)

Event Time Altitude Azimuth Distance (km) Brightness Sun altitude
Rises 17:24:09 0° 340° (NNW) 3,219 7.4 -25.9°
Reaches altitude 10° 17:26:32 10° 339° (NNW) 2,288 6.6 -26.4°
Maximum altitude 17:31:42 77° 254° (WSW) 778 4.0 -27.4°
Enters shadow 17:32:47 56° 184° (S) 899 4.3 -27.6°
